Latest Info:
21/09/2017 ยินดีตอนรับสู่ PokerThai99.com โปรโมชั่นสำหรับสมาชิกใหม่ รับโบนัสฟรี 10%. ฝากขั้นต่ำเพียง 100 บาท.

Jackpot

JACKPOT SYSTEM JACKPOT WINNER

JACKPOT 2000 IS FINALLY HERE (ONLY FOR SPECIAL VIP TABLES AND ABOVE) !!!

Join the global jackpots currently already available in our game, with the latest jackpot system and bigger rewards, where you can buy a jackpot at a price of as small as 100 CHIPS

Jackpot is not a a must to buy, but we provide as an extra feature to the loyal members of pokerthai99.com

There are four jackpot chips that you can buy : 100 chips , 500 chips , 1000 chips , and 2000 chips (only for Special VIP tables and above).

Prizes of Multi Jackpot system in pokerthai99.com are as follow :

  1. Full House X 10 jackpot price you buy
      (Example: You buy 1,000 chips then : 1,000 X 10 = 10,000)
  2. Four of a Kind X 250 jackpot price you buy
      (Example: You buy 1,000 chips then : 1,000 X 250 = 250,000)
  3. Straight Flush x 1,200 jackpot
      (Example: You buy 1,000 chips then : 1,000 X 1,200 = 1,200,000)
  4. Royal Flush X 10,000 jackpot price you buy
      (Example: You buy 1,000 chips then : 1,000 X 10,000 = 10,000,000)
  5. Super Royal Flush X 30,000 jackpot price you buy
      (Example: You buy 1,000 chips then : 1,000 X 30,000 = 30,000,000)

Card Conditions :

  1. Full House is a condition in which your cards and middle cards with a total of 7 cards can get 5 cards with a combined value of 1 three-of-a-kind and 1 pair, for example, 3 cards of 10 and 2 cards of 5.
  2. Four of a Kind is a condition in which your cards and middle cards with a total of 7 cards can get 5 cards with a combined value of 4 cards of the same number and one (1) card of any kind, for example, you get 4 pieces of 3 card (3-s, 3-h, 3-c, 3-d) and 1 card of any kind.
  3. Straight Flush is a condition in which your cards and middle cards with a total of 7 cards can get 5 cards having the same suit and consecutive value, for example, your cards may sequence 5-h, 6-h, 7-h, 8-h, 9-h 10-h.
  4. Royal Flush is a condition in which your cards and middle cards with a total of 7 cards can get 5 cards having the same suit and consecutive value with the smallest card in the sequence is the 10, for example, 10-s, J-s, Q-s, K-s, and A-s.
  5. Super Royal flush is a condition in which the two cards you have in hand combined with the first 3 cards opened on the table are already the Royal Flush, for example, your first 2 cards in hand are 10-s and Q-s and the next 3 cards on the table show as J-s, K-s, and A-s.

Such description above is the brief explanation of the Multi Jackpot pokerthai99.com. Thank you and congratulations on playing our game. We wish you all the good luck !

Texas Poker JACKPOT WINNER

TOP SUPER ROYAL FLUSH
No.DateNamePriceWin
121/09 07:46AKABAD1Super Royal flush40.540.54
221/09 04:40DRAKULA999Super Royal flush16.216.22
320/09 23:08CIPAPOH98Super Royal flush40.540.54
420/09 21:04DKGAM05Super Royal flush81.081.08
520/09 19:13OGENK1Super Royal flush16.216.22
TOP ROYAL FLUSH
No.DateNamePriceWin
121/09 08:17AMALIATULRoyal flush5.405.41
221/09 05:49MONCROT168Royal flush1.351.35
321/09 04:11MANTAP707Royal flush5.405.41
421/09 03:01SAKTILORoyal flush54.054.05
521/09 02:56TOEKYOGIERoyal flush2.702.70
TOP STRAIGHT FLUSH
No.DateNamePriceWin
121/09 08:32TOMMIV9Straight Flush1.621.62
221/09 08:31ANDYLAUU88Straight Flush648.65
321/09 08:28GBER4CA8WJStraight Flush3.243.24
421/09 08:11EE77164AStraight Flush1.621.62
521/09 08:10BAFOYA99Straight Flush324.32
P_LASTJACK
No.DateNamePriceWin
121/09 08:32FF8109ECFull House13.51
221/09 08:32PATIH9191Full House13.51
321/09 08:32MAMENTTFull House2.70
421/09 08:32GOMULMULFull House5.41
521/09 08:32ARISS_SOSFull House13.51
621/09 08:32NG4BR377Full House13.51
721/09 08:32EA78EE15Full House27.03
821/09 08:32WAW99WAWFull House54.05
921/09 08:32TOMMIV9Straight Flush1.621.62
1021/09 08:31GEMINI303Full House2.70
1121/09 08:31KANG86Full House27.03
1221/09 08:31HARRIQQFull House1.35
1321/09 08:31OPPOYOFull House13.51
1421/09 08:31GENDON9999Full House13.51
1521/09 08:31ANDYLAUU88Straight Flush648.65
1621/09 08:31PAKRT29Full House13.51
1721/09 08:31VANDHEFull House2.70
1821/09 08:30TEMP078Full House5.41
1921/09 08:30TETO1512Full House1.35
2021/09 08:30KALIKA88Full House1.35
2121/09 08:30MYIL9E6HYCFull House5.41
2221/09 08:30ES_OYENFull House13.51
2321/09 08:30RIMHAFull House54.05
2421/09 08:30ADEL419Full House2.70
2521/09 08:30UPIK7Full House54.05
2621/09 08:30ALAMS1234Full House13.51
2721/09 08:29AXE72Full House27.03
2821/09 08:29SQDI4602XIFull House5.41
2921/09 08:29MISSION_01Full House13.51
3021/09 08:29RESBOSS90Full House27.03
3121/09 08:29JC6VO58OF1Full House2.70
3221/09 08:29AFQARIFull House27.03
3321/09 08:29ANDYLAUU88Full House5.41
3421/09 08:29NAWAWEIFull House13.51
3521/09 08:28DRAGON_NSTFull House13.51
3621/09 08:28BHORES10Full House13.51
3721/09 08:28KANG86Full House27.03
3821/09 08:28SANEL77Full House5.41
3921/09 08:28GBER4CA8WJStraight Flush3.243.24
4021/09 08:28RASUOFull House13.51
4121/09 08:28HOKI123_Full House5.41
4221/09 08:28TEMP078Full House2.70
4321/09 08:28AMK17Full House5.41
4421/09 08:28ADEL419Full House2.70
4521/09 08:28A4RXDMXR2YFull House5.41
4621/09 08:28SENDI79Full House2.70
4721/09 08:27VIALOVEFour Of A Kind135.14
4821/09 08:27AAKKQQJ100Full House13.51
4921/09 08:27MONDRITA90Full House13.51
5021/09 08:27GREETZ426Full House13.51
JACKPOT SYSTEM JACKPOT WINNER

Domino Multi Jackpot System

Join the global jackpots currently already available in our system, with the latest jackpot system and the first in Indonesia, where you can buy a jackpot at a price of only 100 and have the chance to win.

Jackpot is not a necessity to buy, but we especially provide it as an extra feature to the loyal members of pokerthai99.com.

There are four jackpot prices that you can choose to buy : 100, 500, 1000 and 2000 (only for Special VIP tables and above).

Prizes of Multi Jackpot system in pokerthai99.com are as follow :

  1. Small Pure X 50 jackpot price you buy
      (Example: You buy 0.1 then : 100 X 50 = 5000)
  2. Pure Large X 50 jackpot you buy
      (Example: You buy 0.1 then : 100 X 50 = 5000)
  3. Doublet X 0.01 jackpot price you buy
      (Example: You buy 0.1 then : 100 X 1000 = 100000)
  4. Six Dewa X 6,666 jackpot price you buy
      (Example: You buy 0.1 then : 100 X 6,666 = 666600)

Domino JACKPOT WINNER

TOP ENAM DEWA
No.DateNamePriceWin
121/09 08:28QETUOPMBCZmurni enam9.008.11
221/09 06:10BHUST3Rmurni enam1.801.62
321/09 02:26SHIOMI85murni enam9.008.11
421/09 02:01KZZZZZmurni enam9.008.11
521/09 01:02A9USS99murni enam18.016.22
TOP BALAK
No.DateNamePriceWin
121/09 08:27DEVILITO10balak270.27
221/09 08:26SULLE1974balak27.03
321/09 08:26BLUEDEVIL8balak270.27
421/09 08:17NTOL030balak270.27
521/09 08:17AD4829balak270.27
P_LASTJACK
No.DateNamePriceWin
121/09 08:32FIOO7XRAKPmurni kecil135.14
221/09 08:32JR233murni besar135.14
321/09 08:30DSLR360murni kecil135.14
421/09 08:29TRAVEL199murni besar67.57
521/09 08:29BEJECKmurni besar13.51
621/09 08:28COKI15murni kecil13.51
721/09 08:28KOCIKKKmurni kecil67.57
821/09 08:28QETUOPMBCZmurni enam9.008.11
921/09 08:27DEVILITO10balak270.27
1021/09 08:26SULLE1974balak27.03
1121/09 08:26BLUEDEVIL8balak270.27
1221/09 08:25FELISHAAmurni kecil135.14
1321/09 08:24SEXJONmurni besar135.14
1421/09 08:21AR1YANSAHmurni besar67.57
1521/09 08:21VERLORENmurni besar135.14
1621/09 08:20BG63R0Tmurni kecil135.14
1721/09 08:20J4L4NG14murni besar13.51
1821/09 08:18BMY4RI5murni kecil135.14
1921/09 08:17VERLORENmurni besar135.14
2021/09 08:17NTOL030balak270.27
2121/09 08:17AD4829balak270.27
2221/09 08:15DM213499murni kecil135.14
2321/09 08:15SUN2011murni besar13.51
2421/09 08:14PANDU2016murni kecil67.57
2521/09 08:13WACIKJPmurni kecil67.57
2621/09 08:13ALDI1986balak135.14
2721/09 08:12FERDYANSmurni besar13.51
2821/09 08:11JR2310murni kecil67.57
2921/09 08:11JOE20184murni besar67.57
3021/09 08:11JORTOK1119murni kecil67.57
3121/09 08:10WAHYUMULYAmurni kecil135.14
3221/09 08:06JR233balak135.14
3321/09 08:02JONKE433murni kecil13.51
3421/09 08:0299JAGO99murni besar135.14
3521/09 08:01BRSmurni besar135.14
3621/09 08:01HPJADULmurni besar67.57
3721/09 07:59MZGUSAYmurni kecil13.51
3821/09 07:59QUATRIK84murni besar67.57
3921/09 07:58DM213499murni besar135.14
4021/09 07:57PUTRA_338murni kecil67.57
4121/09 07:57IBRO72murni besar135.14
4221/09 07:55DISEPAKmurni besar67.57
4321/09 07:54QUATRIK84balak135.14
4421/09 07:53NDXAK46murni besar13.51
4521/09 07:52DM213499murni besar135.14
4621/09 07:51DMC888murni kecil13.51
4721/09 07:51J4L4NG14murni besar13.51
4821/09 07:50CELEBES_9murni besar135.14
4921/09 07:49RULLYANDRObalak270.27
5021/09 07:49IBRO72murni besar67.57
JACKPOT SYSTEM JACKPOT WINNER

Jackpot is seen as the combination of all the cards from both the players and the dealer. The dealer should buy as many jackpots as the number of all players who are playing. For example, if there are 3 players who are currently sitting to play and the dealer has decided to buy 100 jackpot, then during this period, the dealer would buy as many jackpots as 3 X 100 = 300

Jackpot is not a necessity to buy, but we especially provide it as an extra feature to the loyal members of pokerthai99.com.

There are three jackpot prices that you can choose to buy : 100, 500, and 1000

Prizes of Multi Jackpot system in pokerthai99.com are as follow :

  1. Small Pure X 50 jackpot price you buy
      (Example: You buy 100 then : 100 X 50 = 5000)
  2. Pure Large X 50 jackpot you buy
      (Example: You buy 100 then : 100 X 50 = 5000)
  3. Doublet X 200 jackpot price you buy
      (Example: You buy 100 then : 100 X 200 = 20000)
  4. Six Dewa X 6,666 jackpot price you buy
      (Example: You buy 100 then : 100 X 6,666 = 666600)

Such description above is the brief explanation of the Multi Jackpot pokerthai99.com. Thank you and congratulations on playing our game. We wish you all the good luck !

Ceme JACKPOT WINNER

TOP ENAM DEWA
No.DateNamePriceWin
121/09 08:05SASTRO75murni enam18.016.22
221/09 07:40JIBRIL_04murni enam1.801.62
321/09 07:21BONARSIJABmurni enam1.801.62
421/09 04:54CH1NM1murni enam18.016.22
521/09 04:54WINDY0030murni enam9.008.11
TOP BALAK
No.DateNamePriceWin
121/09 08:31OILINbalak540.54
221/09 08:30KOMLEK88balak540.54
321/09 08:28ALFAT123balak540.54
421/09 08:28LURSAbalak540.54
521/09 08:25DATAWbalak540.54
P_LASTJACK
No.DateNamePriceWin
121/09 08:32HERU1922murni besar67.57
221/09 08:32PUTRY0585murni besar135.14
321/09 08:31STARGIRLmurni besar135.14
421/09 08:31MOGOLL_murni besar135.14
521/09 08:31OILINbalak540.54
621/09 08:31ADJI3BIRDmurni besar13.51
721/09 08:31NAGASHIVmurni kecil13.51
821/09 08:30ASSASSSmurni besar13.51
921/09 08:30KOMLEK88balak540.54
1021/09 08:30AD8080YOmurni besar135.14
1121/09 08:30VERTESmurni kecil135.14
1221/09 08:30GUSZDOERmurni kecil67.57
1321/09 08:30SIKEREI_02murni kecil13.51
1421/09 08:29BURRAYUT81murni besar135.14
1521/09 08:29UISQ9XGH7Amurni besar135.14
1621/09 08:29CHECYL19murni besar135.14
1721/09 08:29SEDUNIAXXXmurni besar135.14
1821/09 08:29ELANG578murni besar135.14
1921/09 08:28JECKY6666murni besar135.14
2021/09 08:28STARGIRLmurni kecil135.14
2121/09 08:28JATMIKO86murni kecil13.51
2221/09 08:28JUSELAmurni kecil135.14
2321/09 08:28ALFAT123balak540.54
2421/09 08:28LURSAbalak540.54
2521/09 08:27QMHT7TWWOHmurni kecil135.14
2621/09 08:27SJ1506PMYQmurni kecil135.14
2721/09 08:27SAIFUL16murni besar135.14
2821/09 08:27ZAHWABJM22murni besar67.57
2921/09 08:26TROSKUTRR0murni kecil135.14
3021/09 08:26LANGGENG66murni besar135.14
3121/09 08:26PLONG099murni besar135.14
3221/09 08:25KANDANG18murni kecil13.51
3321/09 08:25PACEGOBANGmurni kecil135.14
3421/09 08:25DATAWbalak540.54
3521/09 08:25SJ1506PMYQmurni kecil135.14
3621/09 08:25MLAA_Rmurni kecil135.14
3721/09 08:25OHENGERVbalak270.27
3821/09 08:24HANSWENDmurni kecil135.14
3921/09 08:24MUDINPOmurni kecil135.14
4021/09 08:24VERTESbalak540.54
4121/09 08:24LOVE3RAJAbalak270.27
4221/09 08:24VERTESmurni kecil135.14
4321/09 08:24BLOW33murni kecil135.14
4421/09 08:24CIEQmurni kecil67.57
4521/09 08:24RIANLAU87murni kecil67.57
4621/09 08:23CL_99balak540.54
4721/09 08:23LIAFIRIANAmurni besar13.51
4821/09 08:23KOMLEK88balak540.54
4921/09 08:23NAUFALDZbalak540.54
5021/09 08:22AWALNYAmurni besar135.14